Location: Cape Cod Imaging Station
(41.7417°N, 70.1583°W)
Time: 21:56:01
(UTC-04:00)

ISS - Visible Passes

Search period start: 16 October 2017 00:00
Search period end: 26 October 2017 00:00
Orbit: 401 x 408 km, 51.6° (Epoch: 17 October)

Date Brightness Start Highest point End Pass type
(mag) Time Alt. Az. Time Alt. Az. Time Alt. Az.
16 Oct -0.9 19:21:48 10° W 19:23:50 16° SW 19:25:53 10° S visible
17 Oct -1.8 18:28:53 10° WNW 18:31:46 29° SW 18:34:38 10° SSE visible
19 Oct -0.6 18:21:57 10° WSW 18:23:23 12° SW 18:24:49 10° SSW visible
